Regional Weather Roundup
Issued by NWS

Home | Current Version | Previous Version | Graphics & Text | Print | Product List | Glossary On
Versions: 1 2 3 4 5 6 7 8 9 10 11 12 13 14 15 16 17 18 19 20 21 22 23 24 25 26 27 28 29 30 31 32 33 34 35 36 37 38 39 40 41 42 43 44 45 46 47 48 49 50
000
ASUS43 KDTX 040001
RWRMI
MICHIGAN HOURLY REGIONAL WEATHER ROUNDUP
NATIONAL WEATHER SERVICE DETROIT/PONTIAC MI
700 PM EST TUE MAR 03 2015

NOTE: "FAIR" INDICATES FEW OR NO CLOUDS BELOW 12,000 FEET WITH NO
SIGNIFICANT WEATHER AND/OR OBSTRUCTION TO VISIBILITY.

MIZ047>049-052>055-059>063-066>070-074>076-081>083-040100-
SOUTHEAST LOWER MICHIGAN

CITY           SKY/WX    TMP DP  RH WIND       PRES   REMARKS
ADRIAN         CLOUDY    36  33  89 W21G32    29.66R WCI  25
6HR MIN TEMP:  30; 6HR MAX TEMP:  37; 6HR PCP: TRACE;

ALMA           CLOUDY    32  29  90 W16G24    29.59R WCI  21
ANN ARBOR      CLOUDY    36  32  85 W21G28    29.62R WCI  25
BAD AXE        CLOUDY    31  30  98 W13G20    29.54R WCI  21
CARO           CLOUDY    32  30  93 W12G18    29.56R WCI  23
DETROIT CITY   CLOUDY    37  32  82 W13       29.60R WCI  29
6HR MIN TEMP:  29; 6HR MAX TEMP:  37; 6HR PCP:  0.01;

DETROIT        CLOUDY    36  33  89 SW16      29.62R WCI  26
6HR MIN TEMP:  28; 6HR MAX TEMP:  36; 6HR PCP: TRACE;

FLINT          CLOUDY    36  30  79 W25G37    29.60R WCI  24
6HR MIN TEMP:  28; 6HR MAX TEMP:  36; 6HR PCP: TRACE;

GROSSE ILE     CLOUDY    36  34  93 W9G20     29.61R WCI  29
HILLSDALE      CLOUDY    35  33  93 W16G24    29.64R WCI  25
6HR MIN TEMP:  28; 6HR MAX TEMP:  36;

HOWELL         CLOUDY    33  32  94 W20G29    29.59R WCI  22

CITY           SKY/WX    TMP DP  RH WIND       PRES   REMARKS
JACKSON        CLOUDY    34  30  85 W21G32    29.62R WCI  22
6HR MIN TEMP:  28; 6HR MAX TEMP:  35; 6HR PCP: TRACE;

LAMBERTVILLE   CLOUDY    37  34  87 W14G25    29.66R WCI  29
LANSING        CLOUDY    33  28  81 W22G31    29.61R WCI  21
6HR MIN TEMP:  28; 6HR MAX TEMP:  34; 6HR PCP:  0.02;

LAPEER         CLOUDY    33  31  92 W15G26    29.57R WCI  23
MASON          CLOUDY    33  30  88 W21G30    29.61R WCI  21
6HR MIN TEMP:  28; 6HR MAX TEMP:  34;

MONROE         CLOUDY    36  36 100 W17       29.62R WCI  25
MT. CLEMENS    CLOUDY    34  32  93 SW10      29.56R FOG     WCI  26
6HR MIN TEMP:  27; 6HR MAX TEMP:  34; 6HR PCP:  0.01;

PONTIAC        CLOUDY    34  31  88 W22G29    29.57R WCI  22
6HR MIN TEMP:  26; 6HR MAX TEMP:  34; 6HR PCP: TRACE;

PORT HOPE        N/A     30  27  88 W8        29.52R WCI  22
6HR MIN TEMP:  23; 6HR MAX TEMP:  30; 6HR PCP:  0.06;

PORT HURON     CLOUDY    32  30  93 SW8       29.58R FOG     WCI  25
TRI CITIES     CLOUDY    33  29  85 W16       29.57R WCI  23
6HR MIN TEMP:  25; 6HR MAX TEMP:  33; 6HR PCP: TRACE;

TROY           CLOUDY    37  33  87 W13G20    29.61R WCI  28
SAGINAW HB     CLOUDY    32  32 100 SW13G20   29.57R WCI  22
$$
MIZ043>046-050>051-056>058-064>065-071>073-077>080-040100-
SOUTHWEST LOWER MICHIGAN

CITY           SKY/WX    TMP DP  RH WIND       PRES   REMARKS
BATTLE CREEK   CLOUDY    35  29  78 W17       29.65R WCI  25
6HR MIN TEMP:  30; 6HR MAX TEMP:  36; 6HR PCP: TRACE;

BENTON HARBOR  CLOUDY    32  30  92 W15       29.71R WCI  22
6HR MIN TEMP:  31; 6HR MAX TEMP:  33;

BIG RAPIDS     CLOUDY    30  28  91 W15G25    29.56R WCI  19
6HR MIN TEMP:  24; 6HR MAX TEMP:  31;

COLDWATER      CLOUDY    35  31  87 W20G25    29.66R WCI  23
6HR MIN TEMP:  29; 6HR MAX TEMP:  35;

FREMONT        CLOUDY    30  26  86 W13       29.61R WCI  20
HOLLAND        CLOUDY    34  28  79 W15G25    29.66R WCI  24
6HR MIN TEMP:  30; 6HR MAX TEMP:  34; 6HR PCP: TRACE;

GRAND RAPIDS   CLOUDY    32  27  81 W18G25    29.63R WCI  20
6HR MIN TEMP:  28; 6HR MAX TEMP:  33; 6HR PCP:  0.02;

IONIA          CLOUDY    33  29  85 W14G26    29.60R WCI  23
KALAMAZOO      CLOUDY    34  29  82 W13       29.67R WCI  25
6HR MIN TEMP:  29; 6HR MAX TEMP:  35;

LUDINGTON      CLOUDY    31  25  78 W10G18    29.63R WCI  22
6HR MIN TEMP:  28; 6HR MAX TEMP:  32;

MARSHALL       CLOUDY    33  29  86 W17G24    29.64R WCI  22
MOUNT PLEASANT CLOUDY    32  29  90 W9G17     29.57R WCI  24
6HR MIN TEMP:  24; 6HR MAX TEMP:  32;

MUSKEGON       CLOUDY    32  27  81 W13       29.65R WCI  22
6HR MIN TEMP:  31; 6HR MAX TEMP:  33; 6HR PCP:  0.04;

SOUTH HAVEN    CLOUDY    34  31  89 W10G17    29.69R WCI  26
$$
MIZ016>042-040100-
NORTHERN LOWER MICHIGAN

CITY           SKY/WX    TMP DP  RH WIND       PRES   REMARKS
ALPENA         CLOUDY    25  22  88 SW3       29.51R
6HR MIN TEMP:  23; 6HR MAX TEMP:  25; 6HR PCP:  0.12;

BEAVER ISLAND  CLOUDY    26  24  92 W13       29.50R WCI  15
6HR MIN TEMP:  24; 6HR MAX TEMP:  26;

BELLAIRE       CLOUDY    28  26  94 SW5       29.53R WCI  22
6HR MIN TEMP:  25; 6HR MAX TEMP:  28;

CADILLAC       CLOUDY    27  23  87 W14G22    29.52R WCI  15
CHARLEVOIX     CLOUDY    27  25  92 W14G20    29.54R WCI  16
FRANKFORT      CLOUDY    28  24  82 NW15G22   29.60R WCI  17
GAYLORD        CLOUDY    24  24 100 W12       29.46S WCI  13
6HR MIN TEMP:  20; 6HR MAX TEMP:  24; 6HR PCP: TRACE;

GRAYLING       CLOUDY    27  26  99 W7        29.50R WCI  19
6HR MIN TEMP:  21; 6HR MAX TEMP:  27;

HARBOR SPRINGS CLOUDY    25  23  91 SW3       29.49S
HOUGHTON LAKE  CLOUDY    27  24  89 W10       29.51R WCI  17
6HR MIN TEMP:  22; 6HR MAX TEMP:  27; 6HR PCP:  0.02;

MANISTEE       CLOUDY    28  21  74 W18G25    29.61R WCI  16
OSCODA         CLOUDY    26  25  97 SW6       29.52R FOG     WCI  19
PELLSTON       CLOUDY    26  22  84 SW6       29.49F WCI  19
6HR MIN TEMP:  23; 6HR MAX TEMP:  26; 6HR PCP:  0.11;

ROGERS CITY    LGT SNOW  24  23  96 S6        29.50S WCI  17
TRAVERSE CITY  FLURRIES  29  23  78 W20G26    29.55R WCI  16
6HR MIN TEMP:  25; 6HR MAX TEMP:  30; 6HR PCP:  0.03;

$$
MIZ007>008-015-040100-
EASTERN UPPER MICHIGAN

CITY           SKY/WX    TMP DP  RH WIND       PRES   REMARKS
KINROSS        CLOUDY    23  21  93 CALM      29.46F
6HR MIN TEMP:  23; 6HR MAX TEMP:  25;

MACKINAC ISLAN CLOUDY    24  23  96 CALM      29.47S
6HR MIN TEMP:  23; 6HR MAX TEMP:  24; 6HR PCP:  0.09;

NEWBERRY       MOCLDY    16  15  96 W3        29.46R FOG
6HR MIN TEMP:  16; 6HR MAX TEMP:  23; 6HR PCP:  0.01;

S. S. MARIE    CLOUDY    22  19  89 CALM      29.46F
6HR MIN TEMP:  20; 6HR MAX TEMP:  24; 6HR PCP:  0.20;

MUNISING         N/A     27  19  72 W6        29.51R WCI  20
6HR MIN TEMP:  23; 6HR MAX TEMP:  29; 6HR PCP:  0.12;

$$
MIZ004>006-011>014-085-040100-
CENTRAL UPPER MICHIGAN

CITY           SKY/WX    TMP DP  RH WIND       PRES   REMARKS
MANISTIQUE     MOCLDY    24  23  96 SW3       29.50R
ESCANABA       PTCLDY    27  19  74 SW7       29.55R WCI  19
6HR MIN TEMP:  27; 6HR MAX TEMP:  30;

MENOMINEE      CLOUDY    28  18  64 W6        29.58R WCI  22
6HR MIN TEMP:  28; 6HR MAX TEMP:  30;

SAWYER-GWINN   CLOUDY    25  19  80 W7        29.49R WCI  17
$$
MIZ001>003-009>011-084-040100-
WESTERN UPPER MICHIGAN

CITY           SKY/WX    TMP DP  RH WIND       PRES   REMARKS
IRON MOUNTAIN  CLOUDY    27  17  66 W14       29.52R WCI  16
6HR MIN TEMP:  22; 6HR MAX TEMP:  27; 6HR PCP:  0.01;

HOUGHTON       LGT SNOW  24  21  88 W23G36    29.47R VSB 3/4 WCI   9
6HR MIN TEMP:  21; 6HR MAX TEMP:  24; 6HR PCP:  0.03;

COPPER HARBOR    N/A     26  20  77 NW9G24    29.46R WCI  17
6HR MIN TEMP:  24; 6HR MAX TEMP:  28; 6HR PCP:  0.05;

IRONWOOD       CLOUDY    21  12  68 W21G28    29.57R WCI   6
6HR MIN TEMP:  21; 6HR MAX TEMP:  27;

$$

ABBREVIATIONS USED IN REMARKS
   TC - TEMPERATURE IN CELSIUS
  WCI - WIND CHILL INDEX
   HX - HEAT INDEX
  VSB - VISIBILITY



USA.gov is the U.S. government's official web portal to all federal, state and local government web resources and services.